Regional Weather Roundup
Issued by NWS

Home | Current Version | Previous Version | Graphics & Text | Print | Product List | Glossary Off
Versions: 1 2 3 4 5 6 7 8 9 10 11 12 13 14 15 16 17 18 19 20 21 22 23 24 25 26 27 28 29 30 31 32 33 34 35 36 37 38 39 40 41 42 43 44 45 46 47 48 49 50

000
ASUS45 KBOU 112310
RWRCO

WEATHER ROUNDUP FOR COLORADO
NATIONAL WEATHER SERVICE DENVER/BOULDER CO
500 PM MDT FRI JUL 11 2014

NOTE: "FAIR" INDICATES FEW OR NO CLOUDS BELOW 12000 FEET WITH NO
SIGNIFICANT WEATHER AND/OR OBSTRUCTIONS TO VISIBILITY.

COZ001>005-013-030-031-120000-
...NORTHWEST COLORADO...

CITY           SKY/WX    TMP DP  RH WIND       PRES   REMARKS
CRAIG          MOSUNNY   77  54  44 VRB3      30.15F
HAYDEN         MOSUNNY   75  50  41 SE8       30.19F
MEEKER         MOSUNNY   85  50  29 VRB3      30.14F
MOUNT WERNER   NOT AVBL
STEAMBOAT SPGS MOSUNNY   71  58  62 SE7       30.23F
WALDEN         PTSUNNY   70  46  43 W12       30.30F
$$

COZ006>008-011-120000-
...WEST CENTRAL VALLEYS...

CITY           SKY/WX    TMP DP  RH WIND       PRES   REMARKS
GRAND JUNCTION MOSUNNY   91  50  24 VRB7      30.01F THUNDER
MONTROSE       MOSUNNY   88  46  23 SE18      30.12F
EAGLE          MOSUNNY   81  48  32 CALM      30.19F
RIFLE          PTSUNNY   84  58  40 E8        30.06F THUNDER
DELTA          MOSUNNY   94  46  19 S3        30.05F
NUCLA          MOSUNNY   91  37  15 SW10      30.15F
$$

COZ017>023-064>068-120000-
...SOUTHWEST COLORADO...

CITY           SKY/WX    TMP DP  RH WIND       PRES   REMARKS
DURANGO        MOSUNNY   87  43  21 SW9       30.17F
CORTEZ         SUNNY     88  43  20 W12G20    30.12F
PAGOSA SPRINGS MOSUNNY   85  41  21 NW10      30.26F
TELLURIDE      PTSUNNY   72  46  40 CALM      30.41F
WOLF CREEK PAS NOT AVBL
$$

COZ009-010-012-014-032>034-037-058>063-120000-
...CENTRAL COLORADO...

CITY           SKY/WX    TMP DP  RH WIND       PRES   REMARKS
ASPEN          LGT RAIN  71  60  68 SW8       30.29S
BUENA VISTA    HVY RAIN  67  51  56 W15G21    30.36R
COPPER MTN     CLOUDY    61  46  59 NE6       30.67F
BERTHOUD PASS  CLOUDY    43  30  61 W12       30.71F THUNDER
COTTONWOOD PAS CLOUDY    70  45  40 E6        30.49S
GUNNISON       CLOUDY    63  52  67 W9        30.39R
KREMMLING      CLOUDY    68  54  60 N9        30.29R THUNDER
LEADVILLE      LGT RAIN  54  50  86 E6        30.50F
MONARCH PASS   CLOUDY    55  37  50 SW15      30.77S
SALIDA         CLOUDY   N/A N/A N/A E10       30.34F
SUNLIGHT       CLOUDY    61  54  77 CALM      30.55F
WILKERSON PASS CLOUDY    59  45  58 CALM      30.62F
$$

COZ069>075-120000-
...SAN LUIS VALLEY/SANGRE DE CRISTO MOUNTAINS...

CITY           SKY/WX    TMP DP  RH WIND       PRES   REMARKS
ALAMOSA        CLOUDY    69  47  45 E14       30.30R
LA VETA PASS   RAIN      54  46  76 SW7       30.52S
SAGUACHE       PTSUNNY   77  45  31 NW24      30.32F
$$

COZ035-036-038>040-120000-
...NORTHERN COLORADO FRONT RANGE...

CITY           SKY/WX    TMP DP  RH WIND       PRES   REMARKS
DENVER INTL AP TSTM      69  60  73 NW7       30.17R
DMNS CITY PARK   N/A     68  60  74 N9G17     30.18R
AURORA         TSTM      69  59  69 NW17G23   30.19R
FRONT RANGE AP TSTM      70  63  78 NW16      30.16
ERIE MUNI ARPT CLOUDY    79  56  45 SE28G36   30.16R
BOULDER MUN AP CLOUDY    72  59  64 W10       30.13F
CENTENNIAL     TSTM      65  58  78 W16       30.18F
BROOMFIELD     NOT AVBL
FORT COLLINS   CLOUDY    82  55  39 N8        30.10S
LONGMONT       CLOUDY    83  56  39 SW14      30.14R
$$

COZ041-046-047-076>085-087-088-120000-
...PIKES PEAK/PALMER DIVIDE AND SOUTHERN FOOTHILLS...

CITY           SKY/WX    TMP DP  RH WIND       PRES   REMARKS
COLO. SPRINGS  TSTM      68  59  73 E20       30.24R
A. F. ACADEMY  CLOUDY    74  52  46 N17G24    30.23R
ELLICOTT       NOT AVBL
FALCON         CLOUDY    64  56  73 NE5       30.30R
FORT CARSON    TSTM      70  61  73 N21G26    30.18R
LIMON          MOSUNNY   86  57  37 N8        30.09R
MONUMENT HILL  CLOUDY    64  52  63 N6        30.29R
TRINIDAD       MOSUNNY   96  44  16 S20       30.06F
$$

COZ042>045-048>051-090-091-120000-
...NORTHEAST COLORADO...

CITY           SKY/WX    TMP DP  RH WIND       PRES   REMARKS
GREELEY ARPT   NOT AVBL
AKRON          SUNNY     89  58  34 S13       30.02F
BURLINGTON     SUNNY     94  54  25 S18G26    29.97F
WRAY             N/A     96  62  31 NE17      29.95F
STERLING       SUNNY     95  64  36 E13       29.97F
HOLYOKE        SUNNY     91  68  46 E14       29.97F
FORT MORGAN    MOSUNNY   90  53  27 CALM      30.03F
$$

COZ086-089-092>099-120000-
...SOUTHEAST COLORADO...

CITY           SKY/WX    TMP DP  RH WIND       PRES   REMARKS
PUEBLO         LGT RAIN  87  61  41 N14G25    29.99R
LA JUNTA       SUNNY    101  47  16 S10G17    29.93F
LAMAR          SUNNY    100  48  17 S29G39    29.90F
SPRINGFIELD      N/A     93  45  19 S30G37    30.02F
$$


USA.gov is the U.S. government's official web portal to all federal, state and local government web resources and services.